#timestamp,LO_Frequency,Hit 
1505037615.8,286047000.0,N
1505037635.6,286047000.0,N
1505037655.4,286046996.6,N
1505037675.2,286046995.3,N
1505037695.1,286046998.8,N
1505037696.0,286046998.8,N
1505037715.8,286046998.8,N
1505037735.6,286046994.9,N
1505037755.5,286046999.1,N
1505037775.3,286046998.8,N
1505037795.1,286046996.5,N
1505037815.9,286047001.0,N
1505037835.7,286047000.2,N
1505037855.5,286046997.4,N
1505037875.4,286046994.5,N
1505037895.2,286046992.5,P
1505037915.0,286046991.7,P
1505037915.9,286046991.7,P
1505037935.8,286046994.7,N
1505037955.6,286046991.8,P
1505037975.4,286047005.0,P
1505037995.3,286047008.6,N
1505038015.1,286047006.0,N
1505038035.8,286047004.1,N
1505038055.7,286047004.5,N
1505038075.5,286047007.4,N
1505038095.3,286047006.5,N
1505038115.2,286047008.5,N
1505038135.9,286047008.6,N
1505038155.7,286047003.4,N
1505038175.6,286047002.4,N
1505038195.4,286047006.0,N
1505038215.2,286047007.0,N
1505038235.0,286047006.1,N
1505038235.9,286047006.1,N
1505038255.8,286047003.4,N
1505038275.6,286047002.9,N
1505038295.4,286047006.9,N
1505038315.3,286047006.9,N
1505038335.1,286047004.1,N
1505038355.8,286046999.2,N
1505038375.7,286046995.5,N
1505038395.5,286046995.8,N
1505038415.3,286047001.2,N
1505038435.2,286047001.3,N
1505038455.9,286047005.7,N
1505038475.7,286047005.8,N
1505038495.5,286047001.1,N
1505038515.4,286047000.1,N
1505038535.2,286047005.8,N
1505038555.0,286047007.2,N
1505038555.9,286047007.2,N
1505038575.8,286047005.4,N
1505038595.6,286046998.7,N
1505038615.4,286046997.2,N
1505038635.3,286046998.5,N
1505038655.1,286047001.7,N
1505038675.8,286047003.3,N
1505038695.7,286047005.3,N
1505038715.5,286047003.4,N
1505038735.3,286047003.4,N
1505038755.2,286047003.9,N
1505038775.9,286047005.9,N
1505038795.7,286047005.4,N
1505038815.5,286047005.7,N
1505038835.4,286047005.8,N
1505038855.2,286047005.4,N
1505038875.0,286047005.2,N
1505038875.9,286047005.2,N
1505038895.8,286047003.1,N
1505038915.6,286047001.5,N
1505038935.4,286047004.0,N
1505038955.3,286047004.2,N
1505038975.1,286047003.9,N
1505038995.8,286047006.0,N
1505039015.7,286047003.7,N
1505039035.5,286047000.0,N
1505039055.3,286047001.1,N
1505039075.2,286047002.8,N
1505039095.9,286047001.1,N
1505039115.7,286047000.2,N
1505039135.5,286047002.6,N
1505039155.4,286046998.8,N
1505039175.2,286046996.6,N
1505039195.0,286046995.2,N
1505039195.9,286046995.2,N
1505039215.8,286046996.0,N
1505039235.6,286046997.2,N
1505039255.4,286046995.9,N
1505039275.3,286046993.8,N
1505039295.1,286046992.8,N
1505039315.8,286046991.5,N
1505039335.7,286046992.5,N
1505039355.5,286046993.9,N
1505039375.3,286046995.9,N
1505039395.2,286046994.6,N
1505039415.9,286046993.9,N
1505039435.7,286046993.5,N
1505039455.6,286046996.4,N
1505039475.4,286046990.1,N
1505039495.2,286046995.7,N
1505039515.0,286046993.8,N
1505039516.0,286046993.8,N
1505039535.8,286046992.2,N
1505039555.6,286046994.4,N
1505039575.4,286046990.2,N
1505039595.3,286046991.4,N
1505039615.1,286046987.6,P
1505039635.9,286046996.0,N
1505039655.7,286046996.5,N
1505039675.5,286046997.2,N
1505039695.3,286046998.0,N
1505039715.2,286046995.8,N
1505039735.0,286046997.6,N
1505039735.9,286046997.6,N
1505039755.7,286046996.9,N
1505039775.6,286046997.0,N
1505039795.4,286046997.2,N
1505039815.2,286046995.8,N
1505039835.1,286046995.9,N
1505039836.0,286046995.9,N
1505039855.8,286046993.9,N
1505039875.6,286046993.6,N
1505039895.5,286046993.4,N
1505039915.3,286046992.1,P
1505039935.1,286046997.4,N
1505039955.9,286047000.3,N
1505039975.7,286046999.7,N
1505039995.5,286047001.0,N
1505040015.4,286047002.6,N
1505040035.2,286046999.7,N
1505040055.0,286047002.5,N
1505040055.9,286047002.5,N
1505040075.8,286047002.7,N
1505040095.6,286047000.6,N
1505040115.4,286047000.6,N
1505040135.2,286047001.6,N
1505040155.1,286047000.5,N
1505040156.0,286047000.5,N
1505040175.8,286046998.2,N
1505040195.6,286046998.6,N
1505040215.5,286046999.5,N
1505040235.3,286046998.8,N
1505040255.1,286046997.2,N
1505040275.9,286046999.5,N
1505040295.7,286046996.6,N
1505040315.5,286046999.4,N
1505040335.4,286046998.6,N
1505040355.2,286047000.3,N
1505040375.0,286047000.1,N
1505040375.9,286047000.1,N
1505040395.8,286046999.7,N
1505040415.6,286046998.2,N
1505040435.4,286046998.2,N
1505040455.3,286046997.1,N
1505040475.1,286046993.7,P
1505040476.0,286046993.7,N
1505040495.8,286046995.6,N
1505040515.7,286046994.0,N
1505040535.5,286046997.9,N
1505040555.3,286046999.0,N
1505040575.1,286046998.9,N
1505040595.9,286047001.2,N
1505040615.7,286047000.1,N
1505040635.5,286047000.6,N
1505040655.4,286046998.2,N
1505040675.2,286046998.1,N
1505040695.0,286047000.6,N
1505040695.9,286047000.6,N
1505040715.8,286047002.1,N
1505040735.6,286046999.7,N
1505040755.4,286047002.3,N
1505040775.3,286046998.5,N
1505040795.1,286046999.5,N
1505040796.0,286046999.5,N
1505040815.8,286046997.4,N
1505040835.7,286046999.6,N
1505040855.5,286046995.2,N
1505040875.3,286046996.9,N
1505040895.2,286046995.6,N
1505040915.9,286046997.0,N
1505040935.7,286046997.4,N
1505040955.5,286046995.3,N
1505040975.4,286046999.4,N
1505040995.2,286046999.6,N
1505041015.0,286046996.6,N
1505041015.9,286046996.6,N
1505041035.8,286046995.3,N
1505041055.6,286046995.4,N
1505041075.4,286046996.1,N
1505041095.3,286046996.1,N
1505041115.1,286046995.7,N
1505041135.8,286046996.1,N
1505041155.7,286046996.4,N
1505041175.5,286046995.0,N
1505041195.3,286046995.3,N
